Location: Brivio
(45.7333°N, 9.4500°E)
Time: 22:26:10
(UTC+00:00)

USA 238 DEB - Pass Details

Date: 18 October 2019
Orbit: 1026 x 1186 km, 63.4° (Epoch: 19 November)

Event Time Altitude Azimuth Distance (km) Brightness Sun altitude
Rises 19:21:43 0° 232° (SW) 3,776 7.0 -30.1°
Reaches altitude 10° 19:24:21 10° 236° (SW) 2,838 6.3 -30.5°
Maximum altitude 19:30:57 58° 315° (NW) 1,220 4.1 -31.6°
Enters shadow 19:33:51 35° 18° (NNE) 1,679 4.7 -32.1°
